Tracking 29892 objects as of 21-Nov-2024
HD Live streaming from Space Station
objects crossing your sky now

STARLINK-30283

Track STARLINK-30283 now!
10-day predictions
STARLINK-30283 is classified as:


NORAD ID: 57680
Int'l Code: 2023-124T
Perigee: 469.5 km
Apogee: 471.2 km
Inclination: 53.2 °
Period: 93.9 minutes
Semi major axis: 6841 km
RCS: Unknown
Launch date: August 22, 2023
Source: United States (US)
Launch site: AIR FORCE WESTERN TEST RANGE (AFWTR)
Your satellite tracking list
Your tracking list is empty




NASA's NSSDC Master Catalog

Two Line Element Set (TLE):
1 57680U 23124T   24325.82507052  .00001455  00000-0  54467-4 0  9998
2 57680  53.1610 248.0890 0001181  97.0873 263.0264 15.34227604 71016
Source of the keplerian elements: AFSPC